Theta_e
319 320 319 320 313 315 313 313 313 312 313 315 313 312 311 310 310 308 308 310 308 308 311 311 314 315 316 317 332 344 345 343 341 339 335 336 334 333 332 331 331 330 328 327
320 322 320 317 314 315 316 315 315 313 312 313 311 311 310 309 310 311 311 310 309 309 309 310 314 316 316 319 324 342 344 344 343 341 340 338 337 337 335 336 335 335 334 332
316 321 321 319 316 316 316 316 316 314 313 312 313 312 311 312 309 310 309 309 309 310 310 310 310 314 316 321 337 341 344 344 344 343 341 340 341 341 340 339 339 338 338 339
317 320 321 321 320 317 318 315 315 315 313 314 311 312 311 311 311 312 310 308 308 309 308 308 309 310 313 316 324 339 343 345 345 344 343 343 342 343 343 341 340 339 340 340
317 321 322 322 319 318 318 316 315 314 314 313 314 312 315 313 313 313 311 310 308 308 306 307 307 310 315 315 316 331 343 345 346 346 346 344 344 343 343 343 343 342 341 341
315 316 319 321 320 319 318 317 316 315 313 315 315 313 315 313 311 312 312 311 311 310 308 306 308 310 311 314 315 325 341 344 346 346 347 346 345 345 344 344 344 344 344 343
319 319 315 316 317 318 319 319 321 319 316 318 316 312 316 313 310 313 312 311 311 311 308 309 314 322 322 324 321 328 340 342 345 346 347 347 346 345 345 344 343 343 343 343
321 320 318 314 316 318 320 320 321 321 317 316 314 316 316 315 316 313 311 311 310 309 308 309 318 325 328 330 330 333 339 341 344 345 346 346 346 346 345 345 345 345 344 344
321 320 316 317 316 316 319 319 319 320 318 318 315 314 314 314 314 314 314 313 311 311 310 311 322 329 332 333 334 336 338 341 341 343 343 345 346 346 346 346 346 346 346 346
318 321 317 316 316 316 317 318 318 321 325 324 319 315 316 315 316 315 315 314 313 314 313 313 327 331 333 334 335 336 337 337 336 335 334 334 334 339 343 345 345 346 346 344
317 321 319 317 317 317 317 318 318 318 320 323 323 320 314 314 314 315 314 313 313 312 311 322 329 333 333 332 335 336 337 338 340 341 341 340 340 341 342 343 343 343 342 341
313 320 323 321 317 316 316 317 318 320 321 319 320 320 314 315 315 316 315 312 313 313 322 328 332 332 331 331 331 334 335 336 338 338 339 340 340 341 341 340 340 340 340 339
317 319 323 321 318 317 318 318 318 317 317 319 321 320 317 317 315 313 314 312 312 315 324 332 332 332 331 331 331 332 333 333 333 333 334 335 334 337 336 336 337 338 338 338
312 313 319 321 319 318 317 317 317 318 320 318 318 318 317 315 317 317 316 313 312 311 319 331 332 332 332 332 331 332 332 332 333 332 334 335 333 332 334 334 335 336 335 334
314 315 315 316 320 320 321 321 321 323 322 323 319 317 317 316 315 314 314 313 313 312 312 323 333 332 330 330 330 330 330 331 331 330 332 332 333 331 334 334 333 333 332 331
313 315 317 317 317 319 321 317 316 316 316 316 319 321 317 315 313 314 314 314 313 314 314 313 325 332 332 330 330 330 328 328 331 330 331 330 329 331 331 331 332 330 329 328
312 312 314 317 318 317 318 317 316 315 312 314 320 318 317 317 315 313 313 313 315 313 315 317 323 330 331 331 331 329 328 328 329 329 329 328 328 330 330 329 327 326 324 323
311 312 312 313 313 316 313 313 314 314 311 311 314 314 314 316 317 314 313 312 313 314 313 316 322 328 330 331 330 328 327 327 328 328 327 327 327 326 326 325 324 322 320 319
310 311 312 313 312 311 311 312 314 315 315 314 313 314 312 311 314 316 315 313 312 312 313 315 318 326 330 330 330 328 326 326 326 327 325 325 325 323 321 321 320 318 316 314
307 309 310 308 313 312 308 309 308 310 313 310 310 309 308 309 313 310 314 312 312 311 311 312 314 319 327 329 328 326 325 326 326 324 324 323 323 321 319 319 316 314 312 309
307 308 310 309 310 309 309 306 306 310 309 307 307 307 307 309 310 311 309 310 310 311 311 312 314 314 319 325 326 326 324 325 325 323 321 320 320 318 317 314 312 309 306 304
307 309 309 310 310 310 308 308 309 308 306 307 307 307 308 307 306 306 306 308 310 311 311 312 312 316 318 323 325 325 324 324 322 318 315 315 315 314 311 309 305 304 303 301
311 308 308 309 308 307 307 308 307 306 306 306 306 306 307 307 307 308 311 312 311 311 311 312 315 315 319 323 324 323 318 315 312 310 309 308 307 305 304 303 301 300 300 300
307 307 309 308 308 306 307 307 306 306 306 306 306 306 308 310 310 312 310 309 310 311 313 315 315 314 311 318 321 312 307 307 307 306 304 302 301 300 299 299 300 300 300 298
305 306 307 307 307 307 306 306 305 305 305 306 306 306 307 308 309 309 308 308 310 311 310 312 310 308 305 304 304 305 305 306 304 302 301 300 299 299 299 300 300 299 298 298
302 304 307 308 306 306 306 306 306 305 306 306 307 307 308 307 307 308 309 310 313 311 305 305 303 302 303 303 303 303 304 303 302 300 299 299 298 297 297 296 296 296 296 296
Wind_Speed
3 5 12 23 8 2 3 4 6 3 5 3 7 7 12 10 5 10 11 14 11 12 18 23 32 35 38 34 39 39 40 40 39 37 35 33 41 43 43 45 44 44 43 44
4 19 22 8 8 7 7 7 10 6 8 4 7 11 11 10 9 10 14 13 12 7 8 9 16 14 28 33 39 39 41 38 43 40 43 31 30 30 36 37 40 42 41 42
18 20 18 11 8 10 12 14 13 9 6 6 3 13 7 10 5 7 9 11 9 12 12 9 9 22 23 27 35 40 43 44 44 39 30 24 21 22 28 34 38 43 42 41
15 18 16 21 17 17 18 10 6 5 4 9 7 12 7 9 10 8 9 8 11 10 8 8 9 11 24 33 35 40 41 43 42 36 33 35 32 23 33 32 34 34 41 43
21 19 26 22 21 16 16 7 9 8 10 3 11 4 11 7 10 12 10 10 10 11 12 11 10 20 32 33 36 40 39 37 36 40 36 35 30 31 24 27 30 34 36 40
19 8 14 21 19 15 5 7 5 5 4 7 20 11 19 10 10 6 6 9 10 11 10 10 14 19 26 23 29 35 38 38 38 39 39 39 36 31 29 27 32 34 38 39
21 20 21 7 19 17 9 8 4 6 3 15 16 7 23 5 7 13 12 11 11 11 7 7 8 7 15 21 31 35 37 34 39 39 40 42 40 36 35 33 32 33 34 37
16 16 19 16 16 17 22 17 7 10 11 19 6 10 19 14 20 10 9 9 9 10 8 9 9 8 15 23 30 34 35 34 38 38 39 39 39 37 35 33 34 35 35 37
10 16 3 17 19 17 13 20 25 4 2 0 5 6 10 3 8 7 9 8 9 12 13 13 9 11 16 22 31 35 34 34 34 32 31 32 33 35 35 34 33 34 34 33
9 6 18 12 19 21 20 10 15 11 12 11 6 6 9 11 18 13 12 11 10 13 16 9 9 11 20 24 28 31 31 30 27 25 25 27 27 28 29 29 30 31 33 29
6 8 4 2 15 21 18 19 14 6 15 14 17 14 7 10 8 12 13 9 8 11 12 9 10 14 18 23 30 30 27 26 24 23 23 22 21 20 19 20 21 24 23 21
21 5 13 21 14 5 10 20 22 13 14 11 16 19 4 12 14 15 13 9 8 6 8 3 5 9 16 20 25 29 29 28 28 27 24 22 19 18 17 16 15 16 18 18
4 8 10 15 8 19 13 13 9 8 12 19 13 16 14 19 11 8 6 9 7 5 1 4 5 8 10 16 21 26 28 26 24 22 19 17 15 15 16 15 14 15 15 16
8 6 11 14 18 2 17 25 18 15 11 16 19 18 20 8 19 20 21 12 10 8 6 5 2 5 9 16 19 26 28 26 25 21 19 17 16 16 15 14 15 15 16 17
10 6 7 18 24 10 12 9 6 8 7 8 10 13 19 13 10 11 12 10 9 9 7 9 11 10 8 12 17 20 24 30 26 22 22 21 20 19 15 14 14 14 15 16
6 11 2 9 15 16 16 13 6 9 10 9 13 17 21 14 7 9 13 9 10 10 9 10 11 13 14 19 23 25 25 27 28 23 25 24 25 22 19 18 17 17 17 17
7 7 4 10 7 8 6 10 15 10 11 9 11 13 21 21 12 8 11 11 18 11 10 10 12 15 16 26 29 29 29 25 27 23 24 28 26 26 24 22 20 18 19 20
11 10 7 9 9 14 7 12 14 17 17 17 17 19 21 21 16 11 14 14 16 17 10 10 11 13 22 24 24 19 19 20 22 23 24 28 28 27 28 26 24 22 22 22
17 11 6 9 12 12 8 5 7 9 18 16 15 17 17 18 9 18 15 10 15 15 14 15 17 21 24 28 32 31 27 26 24 24 24 28 31 29 30 30 29 28 27 26
17 17 11 7 12 13 16 13 15 16 19 7 11 16 21 17 10 18 4 9 12 13 9 12 20 14 19 28 30 28 27 28 27 28 29 30 32 33 32 34 34 31 29 30
3 5 16 14 14 10 17 4 6 12 11 17 17 20 22 16 15 16 5 14 11 11 12 19 17 16 28 28 30 27 26 30 34 30 32 33 34 35 35 34 33 33 32 32
11 6 6 6 8 16 12 15 21 15 13 17 14 12 13 13 18 17 10 16 20 21 18 23 10 15 22 25 28 25 26 27 30 34 34 35 35 34 35 36 32 32 34 31
9 12 9 7 5 6 17 22 14 12 15 22 14 15 15 16 20 19 17 15 16 19 19 23 12 8 13 24 26 20 21 33 37 33 30 32 31 32 34 37 35 31 29 25
6 8 8 5 18 15 14 16 12 9 13 16 12 11 11 15 18 21 15 15 14 18 16 9 9 8 6 20 23 24 30 30 30 30 29 29 30 29 28 30 31 27 22 19
4 3 7 10 17 20 19 17 18 15 8 12 19 16 17 18 25 26 20 20 19 20 7 13 10 9 11 19 25 30 33 37 31 31 30 27 28 29 29 26 22 21 16 14
5 8 7 10 16 5 20 20 19 9 14 19 20 20 18 19 23 28 22 17 18 11 9 11 14 18 20 24 26 27 30 33 34 28 26 30 32 27 26 27 22 14 11 8
Wind_Direction
202 186 210 214 208 183 154 210 257 250 252 203 241 244 272 269 229 257 258 257 245 244 258 237 228 231 231 217 212 213 210 211 201 198 198 205 213 218 223 228 230 230 230 229
244 226 222 216 196 205 232 243 254 288 266 189 279 263 258 264 257 242 256 254 240 251 264 242 228 217 213 209 207 204 211 202 205 200 206 206 208 214 220 225 229 231 231 231
211 229 222 202 196 202 223 226 241 244 326 279 324 285 246 269 227 260 259 242 237 229 241 248 234 230 219 209 203 204 207 206 208 203 197 201 201 214 218 224 227 229 230 232
224 233 239 216 216 208 230 199 216 203 203 248 150 270 216 234 255 232 261 238 237 238 244 247 250 241 232 224 213 211 207 205 205 199 195 195 195 199 217 217 221 223 229 231
223 206 217 229 222 196 240 177 190 197 242 17 262 294 257 174 254 253 242 248 240 237 231 238 237 242 256 247 220 212 208 202 197 198 200 197 203 216 221 220 223 226 231 231
244 229 215 225 233 227 206 240 224 211 203 231 241 203 263 227 215 253 227 242 247 253 249 239 249 258 254 241 216 209 205 201 200 199 202 207 209 213 214 218 221 229 234 236
242 240 242 204 225 227 212 200 227 229 202 233 231 198 243 268 228 210 215 219 242 257 265 261 244 224 224 203 198 198 195 194 200 201 208 214 216 216 218 216 213 218 224 229
218 237 222 216 216 210 216 199 183 207 214 237 155 213 237 219 240 244 224 228 245 262 256 246 236 221 208 195 187 188 188 194 201 203 211 217 223 226 229 230 228 229 230 235
205 233 239 209 223 201 231 222 219 254 219 139 213 253 283 238 224 233 252 251 257 263 258 233 216 201 196 189 179 179 181 190 193 200 211 219 226 232 234 239 240 240 241 243
256 269 223 223 217 224 227 215 220 225 229 234 250 245 231 222 240 268 265 252 256 281 273 222 196 196 192 190 183 177 181 184 191 199 208 215 219 225 232 236 237 238 239 241
270 249 275 238 211 221 220 229 242 239 218 228 241 247 204 228 227 228 247 245 257 278 269 228 201 191 183 177 179 176 178 177 179 186 191 195 197 204 212 223 230 232 237 238
222 253 239 247 255 241 225 227 225 227 229 228 232 246 281 217 239 248 248 267 286 279 282 226 174 161 161 169 177 178 180 181 182 184 183 184 186 190 194 203 213 224 232 236
338 227 246 254 279 260 245 251 247 240 239 237 234 246 238 263 271 272 253 284 277 312 109 136 146 170 171 174 177 182 185 186 187 183 182 183 191 201 204 207 214 220 225 229
113 226 260 255 253 201 238 241 236 235 237 237 237 253 252 260 242 250 265 262 251 263 217 168 219 197 190 193 186 189 190 190 186 181 179 182 188 200 207 211 217 220 223 225
158 236 247 264 255 273 268 271 276 267 253 259 268 254 257 243 240 243 250 265 267 261 232 201 190 208 210 212 197 195 193 194 184 179 182 190 193 196 201 213 214 218 222 225
230 245 248 261 238 245 246 260 272 263 262 271 265 280 282 275 263 252 251 257 252 246 235 227 218 215 202 203 207 196 195 195 185 180 183 191 196 186 193 204 211 210 203 200
264 281 252 259 225 221 244 220 237 250 272 257 264 269 276 283 297 280 274 249 252 244 236 202 203 208 216 209 202 205 197 187 183 182 183 191 192 186 186 185 181 183 176 169
252 238 237 265 252 252 242 179 194 218 224 235 239 256 264 276 277 274 281 283 279 271 249 224 205 206 212 207 207 207 198 189 189 189 183 185 184 184 177 174 173 170 165 156
206 228 252 249 248 269 260 190 182 202 243 229 246 252 264 272 297 265 262 268 269 268 268 254 225 206 203 196 202 194 193 193 191 192 190 184 182 176 171 166 167 166 160 155
202 203 214 232 255 257 262 218 224 233 258 197 224 254 266 276 265 275 283 238 258 264 243 249 248 224 193 205 191 183 190 191 196 194 189 183 181 176 169 170 167 164 163 156
174 203 220 228 241 247 243 170 163 197 237 229 227 237 250 253 247 267 306 286 277 247 256 253 240 219 217 209 186 191 190 197 197 183 179 174 177 174 173 165 164 161 156 147
222 187 208 229 247 264 240 232 210 219 231 247 229 239 246 258 273 278 270 267 273 267 256 252 219 225 230 206 186 189 192 192 184 169 161 162 168 169 164 161 154 153 150 145
241 209 230 196 230 262 257 260 250 212 221 250 235 243 248 254 267 271 270 263 261 264 261 249 221 190 199 194 187 185 180 169 157 147 144 147 150 151 154 151 148 146 153 148
231 228 233 246 252 243 245 254 269 219 216 236 247 231 234 254 263 268 265 268 270 265 252 213 164 172 161 173 174 161 146 145 139 131 131 134 134 132 136 140 146 145 145 139
231 145 245 254 261 251 261 260 258 254 253 268 270 260 256 260 267 268 272 277 271 263 216 182 168 156 143 134 134 146 146 142 133 130 130 128 129 130 133 137 138 136 135 144
182 223 217 243 257 240 258 258 262 243 232 239 248 259 257 257 264 269 273 273 274 217 167 160 146 137 138 132 136 139 141 138 133 128 132 135 131 131 130 128 124 124 130 140